SCP
2 2 2 2 1 0 0 0 0 0 0 0 0 0 0 0 0 0 0 0 0 0 0 0 0 0 0 0 0 0 1 1 1 1 1 1 1 1 1 1 0 0 0 0 0 0 0 0 0
1 2 2 1 1 0 0 0 0 0 0 0 0 0 0 0 0 0 0 0 0 0 0 1 1 0 0 0 0 1 1 1 1 1 1 1 1 1 1 1 0 0 0 0 0 0 0 0 0
1 1 1 1 0 0 0 0 0 0 0 0 0 0 0 0 0 0 0 0 0 0 0 1 1 1 1 1 1 1 1 1 1 1 1 1 1 1 1 0 0 0 0 0 0 0 0 0 0
1 1 1 0 0 0 0 0 0 0 0 0 0 0 0 0 0 0 0 0 0 0 1 1 1 1 1 1 1 1 1 1 1 1 1 1 1 1 0 0 0 0 0 0 0 0 0 0 0
1 1 0 0 0 0 0 0 0 0 0 0 0 0 0 0 0 0 0 0 0 0 1 1 1 1 1 1 1 1 1 1 1 1 1 1 1 0 0 0 0 0 0 0 0 0 0 0 0
1 1 0 0 0 0 0 1 0 0 0 0 0 0 1 1 1 0 0 0 0 0 0 1 1 1 1 1 1 1 1 1 1 1 1 1 0 0 0 0 0 0 0 0 0 0 0 0 0
1 0 0 0 0 0 0 1 0 0 0 0 0 0 1 1 1 1 0 0 0 0 0 1 1 1 1 1 1 1 1 0 0 1 1 1 0 0 0 0 0 0 0 0 0 0 0 0 0
1 0 0 0 0 0 0 1 0 0 0 0 0 1 1 2 2 1 1 1 1 1 1 1 1 1 1 1 1 1 1 0 1 1 1 0 0 0 0 0 0 0 0 0 0 0 0 0 0
0 0 0 0 0 0 0 1 1 1 1 1 1 1 2 3 2 2 2 2 2 1 1 1 1 1 1 1 1 1 1 0 1 1 1 0 0 0 0 0 0 0 0 0 0 0 0 0 0
0 0 0 0 0 0 0 0 1 1 1 1 1 2 3 3 3 3 3 3 2 2 2 1 1 0 0 0 0 0 0 0 0 0 0 0 0 0 0 0 0 0 0 0 0 0 0 0 0
0 0 0 0 0 0 0 0 0 1 1 1 1 2 2 3 3 3 3 3 3 2 2 1 1 0 0 0 0 0 0 0 0 0 0 0 0 0 0 0 0 0 0 0 0 0 0 0 0
0 0 0 0 0 0 0 0 0 0 1 1 1 2 2 2 2 2 3 3 2 2 2 1 1 0 0 0 0 0 0 0 1 0 0 0 0 0 0 0 0 0 0 0 0 0 0 0 0
0 0 0 0 0 0 0 0 0 1 1 1 1 1 2 2 2 2 2 2 2 2 2 1 1 1 0 0 0 0 0 0 1 1 0 0 0 0 0 0 0 0 0 0 0 0 0 0 0
0 0 0 0 0 0 0 0 0 1 1 1 1 1 1 1 2 2 2 2 2 2 1 1 1 1 0 0 0 0 0 0 0 0 0 0 0 1 1 1 0 0 0 0 0 0 0 0 0
0 0 0 0 0 0 0 0 0 1 1 1 1 1 1 2 2 2 2 3 2 2 1 1 1 1 1 1 1 1 1 1 0 0 0 0 0 1 1 1 1 0 0 0 0 0 0 0 0
0 0 0 0 0 0 0 0 1 1 1 1 1 1 1 1 1 2 2 3 3 2 1 1 1 1 1 1 1 1 1 1 1 1 0 0 1 1 1 1 1 0 0 0 0 0 0 0 0
0 0 0 0 0 0 0 0 1 1 1 1 1 1 1 1 1 2 2 3 3 2 2 2 2 2 2 2 2 2 2 1 1 1 1 1 1 1 1 1 1 1 1 1 1 1 1 1 1
0 0 0 0 0 0 0 0 1 1 1 1 1 1 1 1 1 1 2 2 3 3 2 2 3 4 4 3 3 3 3 2 2 2 1 1 1 1 1 1 1 1 1 1 1 1 1 1 1
0 0 0 0 0 0 0 0 0 1 1 1 1 1 1 1 2 2 2 2 2 3 2 3 3 4 4 3 3 4 3 2 2 2 2 1 1 1 1 1 1 1 1 1 1 1 1 1 1
0 0 0 0 0 0 0 0 0 1 1 1 1 1 1 2 2 2 2 3 3 3 2 2 3 3 3 3 3 3 2 1 1 2 2 1 1 1 1 1 1 1 1 1 1 1 1 1 1
0 0 0 0 0 0 0 0 0 1 1 1 1 1 1 2 2 3 3 4 3 3 2 2 2 3 3 2 2 2 2 1 1 1 1 1 1 1 1 1 1 1 1 1 1 1 1 1 1
0 0 0 0 0 0 0 0 0 0 1 1 1 1 1 2 3 4 4 4 4 2 2 2 2 3 2 2 2 2 2 1 1 1 1 1 1 1 1 1 1 1 1 1 1 1 1 1 1
0 0 0 0 0 0 0 0 0 0 1 1 1 1 1 2 3 4 4 3 3 2 2 2 2 2 2 2 2 2 2 2 2 2 2 1 1 1 2 2 1 1 1 1 1 1 1 1 1
0 0 0 0 0 0 0 0 0 1 1 1 1 1 1 2 3 3 2 2 2 2 2 2 3 3 3 3 3 3 2 2 2 2 2 2 2 2 2 2 1 1 1 1 1 1 1 1 1
0 0 0 0 0 0 0 0 1 1 1 1 1 1 1 2 2 2 2 2 2 2 2 3 3 3 3 3 4 3 2 2 2 2 2 2 3 3 3 2 2 1 1 1 2 2 2 2 2
0 0 0 0 0 0 0 0 1 1 1 1 1 1 1 1 1 2 2 2 2 3 3 3 3 3 3 4 4 3 2 2 2 2 2 2 3 3 2 2 2 2 2 2 2 3 3 3 3
0 0 0 0 0 0 0 0 1 1 1 1 1 1 1 1 2 2 2 2 3 3 3 3 3 3 3 4 4 3 2 2 2 3 3 3 2 2 2 1 1 2 2 2 3 3 3 3 2
0 0 0 0 0 0 0 0 1 1 1 1 1 1 1 2 3 3 3 3 3 3 3 3 3 3 3 4 3 3 3 3 4 4 3 3 2 2 2 2 2 2 2 3 4 3 3 2 2
0 0 0 0 0 0 0 0 1 1 1 1 2 2 2 3 4 4 3 3 3 3 3 3 3 3 4 4 4 4 4 5 5 4 3 3 3 3 3 3 2 2 3 3 3 2 2 2 2
0 0 0 0 0 0 0 1 1 2 2 2 2 2 3 5 5 4 4 4 4 4 4 4 3 4 4 4 5 5 6 6 6 4 3 3 3 3 4 4 3 2 3 3 3 2 2 2 2
Wind_Speed
9 8 6 5 2 9 15 13 11 9 8 9 9 8 10 11 10 11 8 8 9 10 12 12 12 13 13 13 14 14 15 15 15 15 15 15 15 15 15 15 16 16 16 16 16 16 16 16 16
6 6 6 2 6 12 14 12 12 11 10 9 8 9 11 11 10 11 9 9 10 10 11 12 13 13 13 13 13 14 14 14 14 14 15 15 14 15 15 15 15 15 16 15 15 15 15 15 15
6 7 4 5 13 14 14 12 11 11 8 7 7 9 9 9 8 8 10 11 10 10 11 13 12 13 13 13 13 13 14 14 14 14 14 14 14 15 14 14 14 14 15 15 14 14 14 14 13
5 5 1 10 17 15 13 11 9 10 9 7 9 10 10 8 6 10 12 11 11 10 12 14 11 12 12 12 13 13 13 13 13 13 13 14 14 14 14 14 14 14 14 14 13 13 13 13 12
6 1 9 14 16 13 11 9 6 8 8 8 9 12 11 9 11 13 11 11 11 11 11 13 12 12 12 12 12 12 12 13 13 13 13 13 13 13 13 13 13 13 13 13 13 12 12 12 11
3 2 9 13 14 11 9 7 8 10 11 10 11 12 10 8 11 11 11 9 10 10 11 13 12 11 11 11 12 12 12 12 12 12 12 12 12 12 12 12 13 13 12 12 12 11 11 11 10
2 6 11 13 12 11 8 6 7 9 10 9 8 10 10 10 10 11 10 8 9 9 10 10 11 11 11 11 11 11 11 11 11 11 11 12 12 12 12 11 11 11 11 11 11 10 10 10 9
3 3 10 10 11 11 8 7 7 8 10 8 4 7 10 12 12 11 10 8 8 8 8 9 8 8 9 11 11 10 10 10 10 10 10 11 11 11 10 11 10 10 10 10 9 9 9 9 8
4 3 9 10 9 10 9 8 8 7 10 7 5 8 14 16 14 12 10 9 8 8 7 7 8 7 7 9 10 10 10 9 9 9 8 6 7 9 8 11 10 9 9 9 8 8 8 7 8
2 6 10 7 7 9 9 8 9 7 9 8 10 12 16 15 13 12 11 10 9 8 8 6 7 7 6 6 6 5 6 6 5 5 5 5 5 4 7 11 8 8 7 8 7 6 7 6 5
3 6 7 6 6 7 9 8 6 6 7 8 12 16 16 15 13 11 10 9 9 8 7 7 6 4 5 5 4 3 3 4 5 6 5 4 4 4 5 5 7 6 6 5 7 6 2 2 3
4 5 4 6 6 6 8 7 6 4 8 8 12 16 16 14 12 11 9 8 8 8 7 7 7 5 3 3 3 3 3 3 3 4 3 4 2 2 3 2 3 3 3 2 2 2 2 1 1
4 5 5 6 6 6 6 7 6 6 7 10 14 15 14 12 11 10 9 9 8 8 7 7 6 6 5 3 2 3 2 3 4 3 3 2 3 3 3 2 1 1 2 3 2 2 2 0 1
4 5 7 7 7 6 6 6 5 7 10 12 14 14 13 11 11 10 10 9 9 9 8 8 7 7 5 4 3 2 2 2 2 3 3 2 2 2 2 2 2 1 1 1 0 1 1 1 0
5 7 8 6 6 5 6 7 6 9 11 12 13 12 12 11 10 10 10 9 9 8 8 8 8 7 7 5 5 3 3 3 2 2 3 2 2 2 1 1 2 1 1 1 2 1 1 2 2
7 8 7 6 5 5 7 6 8 10 11 12 12 11 11 10 10 9 9 9 9 9 8 8 7 8 7 5 4 3 2 2 2 2 3 3 2 2 2 2 2 1 2 2 2 2 2 1 2
9 8 7 7 5 4 6 3 9 9 10 11 11 11 11 11 11 10 10 10 9 9 9 9 8 7 7 6 4 4 2 2 3 3 3 3 4 3 3 2 0 2 2 2 3 1 2 2 2
9 8 7 7 5 6 6 3 7 9 9 10 10 11 11 11 11 11 10 10 10 10 10 9 9 7 7 5 4 3 3 3 3 3 3 4 4 4 4 3 3 3 2 2 2 2 3 3 3
7 8 7 5 3 6 6 4 6 8 9 9 10 11 11 10 10 10 10 10 10 10 10 10 9 8 7 5 5 5 4 4 4 4 5 5 5 4 4 4 3 4 3 3 4 4 4 4 3
8 9 8 6 3 5 5 5 5 8 9 9 9 10 10 10 10 10 11 11 11 11 11 10 10 10 9 6 4 4 3 4 4 4 4 5 5 5 5 5 4 4 3 4 4 4 4 3 3
10 9 8 6 5 6 6 7 7 7 8 8 9 9 10 10 11 12 12 12 12 12 12 10 10 10 9 8 6 5 4 5 5 5 4 5 6 6 5 5 5 4 5 4 4 4 5 4 3
10 6 6 6 8 6 6 6 6 7 8 9 9 9 10 11 12 12 12 12 12 12 11 11 10 10 9 9 8 7 6 5 4 4 3 4 5 6 5 5 5 5 5 4 5 4 4 5 4
5 5 6 7 8 7 6 8 4 6 6 7 8 9 10 11 12 12 12 12 12 11 11 10 10 10 10 9 8 8 7 5 4 4 4 4 4 5 5 5 4 4 4 4 5 4 5 4 4
7 8 6 7 9 10 6 8 4 4 3 3 5 8 9 10 11 11 12 11 11 11 10 10 10 10 9 9 9 8 7 6 5 5 4 4 3 4 5 5 4 4 4 4 5 5 5 5 4
12 11 8 9 9 8 5 8 4 1 1 2 2 3 6 9 10 11 12 12 11 11 11 10 10 10 10 9 8 8 7 7 7 6 5 5 4 3 4 4 4 4 4 4 5 5 5 5 5
15 15 10 8 8 7 7 7 3 1 1 1 1 2 4 7 9 10 11 11 11 12 11 11 10 9 9 9 8 7 7 6 5 6 5 4 4 3 3 4 4 4 4 4 4 4 4 3 4
14 14 11 9 7 8 7 5 5 4 3 2 2 3 4 6 7 9 10 10 10 10 11 11 10 9 8 8 7 6 6 6 5 4 4 4 3 3 3 3 3 3 3 3 3 3 3 2 3
9 12 8 10 8 10 8 9 6 7 4 2 1 2 3 5 6 7 7 8 9 9 9 9 9 8 7 7 6 5 5 5 4 3 3 3 2 2 2 3 2 2 2 2 3 2 2 2 1
11 13 11 10 9 10 8 5 3 3 2 2 2 2 3 5 5 6 6 7 8 8 8 8 8 7 6 6 5 5 4 4 4 3 3 3 2 2 2 2 2 2 1 1 1 1 1 1 1
14 13 14 11 9 9 9 4 6 3 2 2 2 3 4 5 6 6 7 8 8 8 7 7 7 7 6 5 5 4 4 3 3 3 3 2 2 2 2 2 2 1 1 1 1 1 1 1 1
Wind_Direction
195 193 215 232 163 74 67 68 73 85 76 72 68 60 61 45 43 82 101 111 108 104 106 108 96 97 97 96 98 98 98 98 98 98 98 98 97 97 97 97 97 99 99 99 97 97 98 98 99
190 196 228 238 70 77 70 68 71 71 90 99 82 75 75 67 66 98 118 116 115 109 109 101 101 99 97 97 97 96 97 96 96 97 98 99 99 98 97 98 97 99 100 100 100 100 101 100 100
201 230 265 67 60 66 75 73 81 87 92 94 88 68 62 77 91 102 116 126 118 111 108 104 105 100 98 96 94 94 95 95 95 96 97 98 99 99 99 99 99 100 100 100 101 101 102 103 103
223 217 137 74 73 67 76 83 92 99 91 88 98 88 79 69 87 111 125 128 123 120 113 107 108 104 102 100 98 98 97 97 96 94 96 96 97 99 100 99 100 100 99 100 101 101 104 106 107
241 220 90 80 77 77 79 80 81 87 88 95 97 98 87 77 102 119 130 132 126 118 113 113 110 108 105 103 101 101 100 98 97 96 97 98 98 98 98 99 99 99 99 100 99 99 103 105 107
234 94 82 82 84 86 85 85 86 91 99 102 106 103 86 106 120 130 129 128 121 118 115 116 114 109 107 106 103 101 100 99 99 99 100 101 101 100 99 99 99 100 100 100 99 98 99 101 103
7 68 78 85 94 92 88 84 87 99 103 96 104 103 111 125 127 129 128 128 120 120 119 125 128 125 117 108 105 103 102 102 102 101 102 103 104 103 102 101 101 102 102 101 100 101 99 101 103
324 105 90 84 87 90 104 99 94 101 98 106 106 115 134 140 140 137 133 127 125 124 121 121 117 123 130 123 111 107 106 106 106 104 105 112 116 115 120 117 105 105 103 101 100 102 104 106 106
260 98 83 78 81 101 122 119 108 102 116 110 82 93 123 138 145 143 140 140 135 130 129 129 130 133 129 122 124 128 124 121 129 120 122 147 130 123 133 96 107 108 105 102 101 105 114 127 129
286 79 75 67 73 106 126 120 123 137 128 122 112 109 127 145 151 152 154 153 147 144 142 137 131 138 132 122 129 137 133 127 124 113 123 113 99 97 100 111 110 109 114 119 113 126 162 196 143
52 68 81 90 88 110 126 122 134 135 125 135 140 141 147 154 158 160 157 151 144 151 149 143 138 139 133 135 139 127 119 122 132 122 124 111 125 127 124 131 138 137 154 146 141 176 163 115 85
91 75 77 95 111 123 124 129 132 109 79 113 138 147 154 163 164 161 157 154 153 159 156 146 147 148 142 135 131 150 143 140 130 129 143 125 113 107 106 121 119 138 133 109 130 126 97 69 103
105 99 95 109 130 127 133 127 123 113 105 122 137 151 160 165 163 161 160 161 160 164 164 154 161 154 156 151 175 147 143 140 129 133 132 134 137 127 122 113 106 129 121 145 150 131 118 144 199
98 119 120 123 125 142 148 133 140 119 131 137 149 159 166 167 167 165 168 169 171 174 169 164 172 164 166 173 175 161 158 146 154 145 134 158 135 121 132 152 154 152 158 94 157 150 175 226 242
154 147 134 130 142 150 176 152 140 134 148 153 160 165 168 172 174 176 175 179 178 177 169 173 177 175 179 184 187 181 177 176 166 142 148 177 176 148 187 158 184 170 163 172 219 220 228 230 227
185 189 162 139 162 163 227 129 126 150 164 165 168 169 175 180 184 183 178 183 183 179 175 181 187 178 182 185 195 196 195 181 190 176 169 185 195 194 221 217 196 171 217 218 210 238 244 245 259
197 201 176 148 176 183 231 126 132 163 176 173 176 178 183 184 190 188 187 186 184 183 180 184 190 184 185 183 190 202 198 213 217 196 194 190 202 198 219 237 210 229 229 242 258 212 266 262 267
192 196 188 171 165 210 221 155 145 172 187 182 183 185 190 193 191 190 192 190 186 185 186 188 190 190 189 192 193 201 205 213 213 201 202 213 208 203 220 217 212 246 248 244 261 272 259 269 264
206 208 195 167 153 222 222 204 165 176 193 193 191 193 196 197 186 185 190 193 188 188 189 192 195 188 195 201 205 199 204 213 210 208 202 214 220 210 223 245 212 235 242 250 254 256 245 250 260
212 211 196 160 152 235 228 218 178 183 201 203 199 201 201 193 186 184 189 191 192 192 193 196 199 196 201 202 213 217 223 224 222 223 202 220 222 221 218 229 238 230 241 245 252 255 270 265 249
210 216 204 181 175 208 241 218 192 186 202 204 206 208 206 198 190 186 189 191 193 194 197 201 202 200 205 204 209 209 206 225 217 214 208 218 223 226 235 228 242 243 249 248 251 248 252 264 256
199 209 211 200 215 198 239 238 188 191 197 204 210 211 210 201 195 190 190 191 194 195 195 199 201 203 205 207 217 218 221 228 228 230 218 215 221 230 229 232 239 247 251 248 249 241 251 256 261
184 167 202 212 225 230 211 256 188 172 211 211 212 212 209 202 197 192 192 191 194 194 192 193 198 202 204 210 215 219 228 232 232 231 223 229 218 226 233 232 236 240 248 252 263 263 256 254 257
155 164 178 219 234 230 225 251 237 179 230 232 206 209 208 201 194 190 190 187 190 192 192 191 191 198 201 205 212 219 231 237 241 236 231 226 221 223 226 233 236 241 246 245 251 252 245 253 259
195 196 197 207 217 224 202 242 248 335 304 277 251 206 200 196 191 188 189 187 187 188 190 191 188 195 197 202 210 214 224 232 236 237 230 234 234 227 221 230 233 242 245 247 249 246 253 243 243
206 213 222 223 219 202 188 232 223 141 176 245 243 205 191 189 188 189 191 190 187 186 187 188 189 195 197 202 206 212 215 224 231 229 243 233 241 239 229 227 232 239 245 243 239 245 243 240 243
200 219 234 241 245 241 200 204 208 190 186 155 147 168 171 178 183 188 188 184 182 183 185 187 186 190 197 202 203 210 216 227 235 231 235 243 238 237 229 228 230 236 241 245 237 232 240 237 241
226 206 211 232 233 234 216 216 207 178 187 180 181 155 144 157 165 174 175 172 173 179 179 178 181 187 192 194 201 201 205 209 217 227 226 240 242 236 232 223 226 230 226 223 230 224 225 227 235
193 204 216 223 240 242 226 199 143 176 178 201 174 132 133 142 145 151 155 157 162 165 164 167 174 178 181 188 191 198 196 196 200 211 216 218 223 218 222 218 215 219 213 198 197 211 195 186 191
208 208 207 213 216 244 256 168 118 148 158 173 136 115 114 123 130 136 140 142 146 150 153 157 164 167 169 173 176 178 176 176 182 189 198 198 195 203 204 191 191 201 189 180 185 192 185 182 186